RH
37 35 35 35 34 32 32 32 32 32 32 35 35 34 30 28 30 32 33 34 39 46 46 46 52 58 61 66 65 62 63 61 63 60 55 50 38 34 36 36 34 31 30 31 26 23 23 21 21 19 19 19 20 21 22 24 25 27 28 28 28 29 28 26 28 30 30 30 32 33 33 32 28 23 20 20 17 22 25 22 23 22 22 20 19 24 24 19 21 23 24 20 17 18 18 19 19
40 38 36 36 37 34 33 33 32 32 30 29 32 31 28 27 30 30 30 31 38 44 45 43 49 57 60 65 62 61 63 61 61 60 55 43 34 32 33 35 35 32 30 28 25 23 24 22 21 20 19 20 20 21 22 24 26 27 28 28 27 28 28 28 29 31 31 29 30 31 31 31 28 21 18 19 18 18 20 21 23 23 24 22 22 28 27 24 24 24 21 17 15 17 18 19 20
45 44 40 37 38 36 34 35 33 34 31 28 30 30 28 28 29 29 27 29 34 38 39 39 43 51 59 65 62 60 63 61 59 55 50 38 33 35 34 36 36 33 30 27 24 24 24 23 22 20 20 20 20 21 22 24 25 27 28 28 28 28 29 30 30 31 33 31 29 29 28 29 29 23 18 19 18 17 18 20 22 24 25 24 27 30 27 26 26 22 18 15 15 17 19 20 20
48 49 44 38 38 38 36 36 35 34 32 28 29 30 29 29 29 28 25 24 28 30 31 34 39 45 54 62 62 60 60 58 55 51 46 37 34 38 38 40 38 34 31 26 23 25 25 24 22 21 21 21 21 21 22 24 25 27 27 28 28 28 30 32 32 32 34 33 30 28 26 26 28 25 19 18 18 17 17 18 21 24 25 26 30 31 27 26 24 20 17 15 16 17 19 20 21
48 49 48 45 42 40 38 36 36 35 32 27 29 31 30 29 29 27 24 22 23 25 26 33 39 43 49 55 58 60 59 57 53 49 45 39 35 37 38 40 39 35 32 26 23 25 25 24 23 21 21 21 21 21 22 23 25 27 27 28 28 28 31 33 33 32 33 35 32 28 26 25 26 25 20 18 17 17 17 17 18 21 24 26 30 28 25 24 22 19 17 16 17 18 20 21 22
46 47 46 50 47 41 40 39 37 36 31 28 29 31 31 29 28 26 26 23 22 22 25 33 40 44 48 49 54 57 56 55 52 49 45 42 39 38 38 40 39 35 32 28 23 24 25 24 23 22 21 21 22 21 22 23 25 26 28 29 29 30 31 33 33 33 33 34 32 28 25 24 23 22 21 17 17 17 17 16 17 19 22 26 28 26 24 21 19 19 18 18 18 19 21 21 23
44 45 43 47 48 43 43 43 39 36 31 29 29 30 31 30 28 26 28 27 23 23 26 34 38 42 47 46 50 52 50 51 51 49 45 44 41 40 38 39 39 33 32 28 23 24 25 24 23 22 22 21 21 22 22 23 24 26 28 29 30 32 32 33 33 33 32 33 33 29 25 23 20 19 20 19 17 17 17 17 17 17 20 26 27 26 24 20 18 19 19 19 20 21 22 22 23
42 43 42 42 47 46 45 45 41 37 32 29 28 29 32 32 30 28 29 27 23 23 25 33 34 37 44 42 45 50 48 49 51 51 46 44 42 41 39 39 38 33 31 27 22 23 25 25 24 23 22 22 21 21 22 23 24 26 28 29 32 33 33 33 33 33 31 32 32 30 26 23 18 17 19 21 19 17 17 18 18 17 20 24 26 26 24 20 18 19 20 20 21 22 23 23 25
41 42 41 39 42 45 46 46 42 39 33 29 29 30 33 33 32 30 30 27 24 23 23 29 30 35 42 40 44 47 46 47 48 48 46 43 41 42 41 40 37 32 31 27 23 23 23 24 24 24 23 22 21 20 21 22 23 26 28 30 32 33 32 32 32 32 30 30 30 30 28 21 17 16 18 21 21 19 18 18 19 19 20 23 25 26 24 21 18 19 20 20 21 22 23 24 25
41 41 41 40 38 40 43 45 42 39 34 30 29 31 32 34 34 32 31 30 25 25 23 26 29 35 41 41 45 46 44 45 44 45 44 41 40 41 43 42 38 34 32 29 26 23 22 23 23 24 25 23 22 20 21 20 22 24 27 29 32 33 32 31 31 31 30 29 30 31 26 19 16 16 17 19 21 21 19 19 19 20 21 22 23 24 23 22 20 19 19 20 20 21 23 24 25
41 40 40 40 38 37 38 40 41 39 36 33 30 31 33 34 35 33 32 31 27 27 25 27 34 38 41 41 44 45 44 45 44 43 42 41 40 40 42 43 41 37 35 32 30 25 22 22 23 24 25 25 24 21 20 20 21 23 26 29 31 32 32 31 31 31 29 29 30 29 24 18 16 16 16 18 20 22 22 20 20 21 22 23 23 23 22 22 22 19 19 20 20 21 22 24 26
39 39 39 39 37 36 35 36 36 36 37 36 33 31 34 35 35 34 33 31 27 28 26 28 37 39 41 43 45 47 44 44 43 41 40 40 40 39 40 42 42 41 38 34 31 26 22 22 23 25 26 27 26 22 21 21 22 25 26 28 30 32 32 32 33 32 29 28 29 26 22 19 17 16 16 17 19 22 23 23 21 21 22 23 24 22 20 21 22 21 20 20 20 21 22 24 26
37 38 39 38 35 36 35 33 32 34 35 36 35 32 34 36 34 35 35 32 29 30 28 30 38 40 45 48 48 50 49 45 42 41 40 38 38 38 39 41 43 42 41 37 32 27 23 23 23 25 27 28 27 24 24 23 25 28 29 30 30 31 32 33 34 33 30 27 25 23 22 20 18 17 17 17 18 21 24 25 23 22 23 23 24 23 20 20 21 22 21 21 21 21 23 25 28
35 37 39 38 35 35 34 32 30 31 32 34 36 34 35 37 35 36 35 33 31 31 30 33 39 44 51 53 51 51 51 48 43 41 39 38 38 39 40 41 43 43 42 39 34 29 25 24 24 24 27 27 26 26 25 26 30 34 34 33 31 31 32 33 34 33 30 25 21 21 23 23 20 18 17 18 18 20 24 26 25 24 24 23 24 23 20 19 20 22 22 22 22 23 24 27 29
34 36 38 37 36 34 32 31 30 29 30 32 35 35 35 36 36 36 35 34 33 31 31 33 35 40 49 51 52 52 50 49 45 42 39 38 38 39 41 41 44 43 42 39 34 30 27 25 25 25 26 27 26 27 27 29 34 38 38 36 34 34 34 34 34 32 27 21 19 21 25 26 24 21 18 18 18 20 24 26 27 26 26 24 24 23 22 20 19 21 22 23 24 25 26 26 27
34 37 37 36 34 32 30 30 30 28 28 30 33 35 36 37 37 36 35 36 34 32 32 33 32 36 47 50 51 51 49 48 48 46 40 38 39 39 42 43 45 44 41 38 32 28 26 26 25 25 27 27 27 28 29 31 36 39 39 38 34 33 34 32 31 28 23 18 19 22 27 29 28 25 22 19 18 20 23 26 28 28 26 24 24 24 23 21 19 21 22 24 26 27 26 25 26
36 38 35 31 29 28 28 30 30 27 27 29 31 33 35 37 39 37 35 38 37 34 31 33 34 37 44 47 46 47 46 47 50 48 42 39 40 43 45 47 48 47 43 39 35 30 26 27 26 26 27 28 29 30 30 31 36 39 40 38 33 32 32 30 29 24 19 18 19 23 28 32 33 30 26 23 20 20 23 27 29 30 27 24 25 26 25 23 21 21 23 25 26 25 25 29 31
36 37 31 28 26 25 26 28 29 27 29 31 31 32 33 35 39 39 37 38 39 37 34 36 38 38 40 42 43 45 45 47 49 49 47 44 44 48 51 52 50 48 46 42 40 35 29 27 27 28 29 30 30 31 31 31 34 38 40 38 35 33 31 29 26 21 17 19 20 24 30 36 39 37 34 29 25 23 24 28 31 32 30 26 28 30 29 26 23 23 23 23 23 23 26 33 35
32 33 29 26 25 24 25 28 29 29 30 31 32 34 33 34 39 42 41 39 40 39 38 41 45 45 44 45 45 45 44 46 48 48 50 48 46 50 52 52 49 48 47 44 43 40 35 32 29 28 30 30 31 32 31 31 32 35 38 37 34 32 30 28 24 19 17 18 20 24 32 40 43 42 42 38 34 30 27 29 33 35 32 31 34 35 32 28 26 25 23 24 28 28 29 35 38
27 29 28 24 24 25 25 27 29 29 30 31 32 34 34 34 37 43 44 42 42 39 36 41 49 50 49 49 46 43 43 46 48 47 49 47 46 48 48 48 47 47 46 44 43 41 37 36 33 29 30 31 32 32 31 31 32 32 35 35 32 30 28 26 22 18 17 19 22 26 31 38 43 45 47 47 46 42 36 34 36 36 35 36 38 38 35 31 30 30 31 34 38 38 37 38 41
22 24 23 21 24 26 25 26 28 29 30 31 31 33 35 34 35 40 44 43 43 42 37 36 44 48 46 46 44 41 42 44 46 47 47 46 46 46 45 44 45 46 46 43 41 40 37 36 36 32 31 33 33 32 32 32 32 32 34 34 32 29 27 25 20 18 19 22 28 31 33 37 43 47 49 51 52 51 48 45 41 39 41 44 44 43 41 38 39 41 43 44 44 43 43 44 47
17 20 19 19 23 24 25 25 26 27 29 32 31 32 34 36 36 35 39 42 41 43 41 35 39 43 41 42 43 42 42 43 45 47 47 46 45 45 44 42 43 45 45 42 40 39 38 36 37 34 33 36 34 33 33 32 32 33 34 35 35 31 28 26 21 20 23 26 32 35 37 41 45 48 51 53 54 54 55 55 51 49 51 51 50 50 49 48 48 49 48 47 47 46 49 53 55
14 16 16 17 20 22 24 25 25 25 28 32 32 31 33 37 39 34 35 40 38 39 39 35 38 40 37 40 43 43 45 46 47 48 49 49 45 44 45 41 42 44 43 42 40 38 38 37 37 35 35 36 34 34 35 33 33 34 35 38 38 33 30 28 24 25 29 30 35 37 39 43 46 49 53 55 55 55 58 59 59 59 59 57 56 56 55 55 56 55 52 51 52 53 58 62 63
14 13 12 15 17 20 22 23 25 25 26 30 30 32 34 36 38 34 34 36 36 37 36 34 38 40 38 40 43 45 49 49 50 51 51 52 46 43 44 41 41 44 43 42 40 39 38 38 37 35 35 35 34 36 35 33 34 36 37 39 41 37 33 33 31 34 38 36 38 40 41 44 47 52 56 57 56 58 61 61 61 63 63 61 60 59 58 59 59 59 58 58 59 59 62 66 68
16 13 10 12 15 17 20 22 25 25 26 29 29 32 33 33 33 33 34 35 36 36 36 36 38 40 39 42 46 46 49 50 52 54 55 55 47 43 44 41 40 43 43 41 40 40 39 39 38 37 36 34 34 37 35 34 34 37 39 40 40 41 40 41 41 42 42 40 39 41 42 47 52 55 58 59 58 60 63 64 64 65 65 64 64 63 61 61 61 59 60 62 63 62 64 68 71
16 14 12 12 12 15 19 22 24 25 27 28 29 30 30 30 30 32 35 35 35 34 36 37 37 39 41 47 47 42 46 52 53 55 56 54 49 45 45 42 42 41 41 41 41 40 39 40 38 37 38 35 35 37 36 35 35 37 39 40 40 42 47 49 46 44 42 39 38 41 48 55 58 59 61 61 61 64 65 65 66 67 67 67 65 64 63 61 62 60 59 62 65 66 68 70 72
17 15 14 14 13 13 16 20 23 24 26 27 28 28 26 27 29 31 32 33 34 32 35 37 35 36 41 47 44 39 44 48 47 50 51 51 48 47 46 44 43 41 41 41 41 40 39 40 38 37 38 37 37 37 35 36 37 38 40 40 40 43 49 50 48 47 45 38 37 45 54 59 59 61 61 61 63 65 63 63 66 68 69 68 66 66 64 62 64 63 62 64 66 68 69 68 69
19 17 16 16 15 14 14 17 20 22 23 24 25 26 24 25 29 30 29 29 31 30 34 40 39 37 38 41 40 41 44 42 41 44 48 49 47 45 44 43 42 41 41 41 41 40 38 39 38 37 39 38 38 37 35 38 39 39 41 41 41 43 47 48 48 48 44 38 41 48 53 53 54 57 59 62 63 63 62 65 69 69 70 70 68 68 66 63 65 65 64 64 64 65 66 65 64
23 20 18 17 18 18 16 15 17 19 20 20 21 25 26 25 26 27 27 27 29 29 34 41 43 44 43 42 42 45 45 42 40 41 47 51 47 45 44 42 42 41 40 40 41 41 38 38 38 38 39 38 38 37 36 38 39 39 40 41 40 42 44 45 46 46 41 40 45 49 49 49 52 55 58 60 60 61 62 67 73 71 69 71 68 66 66 64 64 64 61 59 60 61 62 60 57
26 23 20 19 20 20 18 16 15 15 17 18 20 24 25 24 21 21 24 26 27 29 33 39 43 45 48 48 47 48 47 44 41 40 47 53 50 48 47 44 42 41 40 40 41 40 38 38 38 38 38 38 38 37 36 38 39 39 40 40 40 41 42 42 46 47 42 41 47 50 50 51 54 58 59 58 58 61 64 68 72 70 68 70 66 62 64 64 61 60 58 57 58 57 57 55 53
27 26 24 22 22 20 18 17 15 14 14 16 24 27 20 18 18 17 20 23 25 28 29 36 42 42 45 48 50 52 48 42 41 41 45 50 50 47 45 42 41 41 40 40 41 40 39 39 39 38 38 39 38 37 37 38 39 38 40 40 38 39 40 42 47 50 46 43 50 54 53 54 56 59 60 59 58 60 64 68 68 69 68 67 64 61 60 59 58 58 58 58 58 57 54 53 52
27 30 29 24 23 20 17 18 16 14 13 14 25 29 19 15 16 15 18 21 25 27 28 34 40 42 44 44 46 53 50 42 40 42 43 46 48 46 42 41 40 40 39 39 40 40 39 39 40 39 38 39 38 37 38 38 39 39 40 40 38 39 40 42 48 51 49 48 55 60 61 61 59 59 58 57 58 62 69 72 68 67 66 62 62 61 56 55 56 56 56 55 55 55 52 51 50
28 32 32 26 25 22 18 17 16 15 14 14 21 24 18 15 15 14 17 22 25 26 28 33 38 41 44 45 45 50 50 46 43 44 45 45 46 44 41 40 39 39 38 38 39 39 39 39 41 39 38 39 38 38 39 37 38 40 41 40 39 39 38 43 49 52 53 55 60 65 67 65 61 59 57 55 62 70 76 77 71 66 63 59 59 57 53 54 52 51 53 51 50 51 49 49 47
29 31 32 27 25 24 20 17 16 15 15 15 17 19 16 15 15 14 16 21 26 27 26 31 37 40 43 46 47 49 48 46 43 42 42 42 43 42 40 40 38 38 38 38 38 39 38 38 40 39 38 39 38 38 38 36 38 40 41 41 40 39 38 45 51 54 59 63 67 70 69 65 61 58 56 58 68 76 79 79 73 66 61 58 53 49 49 50 46 45 47 49 49 49 47 47 44
27 29 31 29 26 26 23 19 16 16 17 18 18 17 15 15 16 15 15 18 23 26 26 26 32 37 40 44 46 45 43 40 37 39 39 38 40 40 40 40 38 38 39 39 39 38 37 38 39 40 39 38 38 39 38 36 38 41 40 41 40 38 40 47 53 57 62 66 69 70 67 63 61 58 57 63 71 77 80 78 71 63 58 54 48 44 45 45 43 43 44 47 50 48 47 45 42
23 25 29 29 28 28 26 23 19 17 18 21 20 17 15 14 16 18 18 18 18 22 26 25 29 34 37 40 40 40 40 37 34 37 38 36 37 39 41 41 40 39 39 39 39 38 37 38 39 41 39 37 38 39 37 35 37 40 40 40 39 37 41 48 55 60 62 65 68 68 66 64 61 59 60 67 72 75 78 74 65 58 55 52 47 42 41 40 40 43 44 46 48 47 47 45 43
21 21 25 29 30 30 28 27 23 19 19 21 20 17 15 14 15 17 20 21 18 18 21 23 26 32 36 37 38 36 37 37 34 35 37 36 37 40 41 41 40 41 40 38 39 38 37 37 39 40 38 37 39 37 36 34 35 38 40 39 37 36 40 49 58 61 62 63 65 66 66 64 62 61 64 69 70 72 75 69 61 55 51 50 47 42 39 39 41 43 43 45 47 47 47 46 46
21 20 21 26 30 30 29 29 26 22 21 22 21 18 15 16 16 16 17 20 21 18 18 19 21 27 33 36 37 35 33 36 36 35 36 36 37 39 41 41 40 41 40 39 39 38 36 37 40 40 37 37 38 35 32 32 34 36 37 36 37 39 43 51 58 61 61 62 63 65 65 64 63 64 67 69 69 71 71 66 59 54 50 50 47 42 41 41 42 44 43 44 47 48 49 48 46
21 21 22 24 28 30 30 29 28 25 24 24 23 20 17 16 17 17 16 16 18 19 19 19 18 21 25 29 33 34 31 34 37 35 35 35 36 37 40 42 42 40 40 40 38 37 36 37 41 41 38 36 35 31 28 29 33 36 37 37 41 44 46 54 60 60 64 67 68 68 67 66 65 66 69 70 69 68 67 64 59 54 52 52 47 42 42 42 44 46 43 43 46 48 49 48 43
26 22 23 23 23 28 31 31 31 28 26 25 23 23 21 20 19 18 20 18 16 17 19 20 19 19 20 21 27 30 29 31 34 34 34 35 35 36 39 42 43 41 40 39 37 37 36 37 41 41 38 35 30 28 27 29 34 37 40 43 46 47 49 58 63 63 69 73 72 72 70 69 69 70 71 71 68 66 65 64 58 54 54 54 48 41 41 44 46 46 42 42 44 43 45 46 43
33 27 24 21 20 25 29 32 35 33 28 25 24 25 25 24 23 20 19 19 16 16 18 20 19 19 18 19 22 24 25 28 32 34 34 34 34 35 37 40 41 39 39 38 36 36 34 36 41 39 35 32 28 27 29 32 36 40 44 48 50 50 53 59 61 63 70 73 73 75 74 73 72 72 72 72 68 66 66 65 58 55 56 53 48 42 42 45 46 44 40 41 43 43 43 44 41
35 32 27 21 19 23 27 32 38 39 34 27 26 29 26 22 22 21 18 17 17 17 17 18 19 18 17 18 21 24 26 28 29 31 32 32 33 35 36 38 38 37 38 39 38 36 35 39 42 38 33 31 28 27 31 36 40 43 47 50 52 54 56 58 58 62 68 72 74 75 74 73 72 72 72 71 68 67 68 65 58 56 57 53 46 43 43 44 42 40 38 39 43 45 43 41 37
37 33 29 23 19 21 26 31 37 42 40 31 28 31 28 22 21 22 20 17 17 18 18 16 16 18 18 17 20 25 28 30 30 30 32 33 34 35 36 37 38 37 37 40 40 38 39 42 42 37 32 29 28 29 31 36 43 49 52 54 56 58 60 61 64 68 71 75 76 75 73 72 70 70 71 70 68 69 70 65 59 58 57 50 44 42 42 43 40 37 37 38 39 41 40 38 34
40 34 29 26 22 20 24 29 35 40 40 36 31 31 29 25 22 23 23 21 18 17 18 16 16 17 17 16 20 26 27 29 30 32 33 33 33 34 35 38 39 37 39 40 40 40 41 42 41 37 33 28 28 30 31 36 46 54 56 58 61 62 63 65 70 73 75 77 77 77 74 70 68 67 69 71 70 71 71 67 61 58 54 48 43 42 41 43 41 39 37 35 33 33 34 32 28
39 34 30 28 27 23 20 24 33 39 42 42 37 33 31 27 23 21 22 23 21 16 16 16 16 17 16 16 21 26 28 28 29 32 34 32 31 31 32 36 37 37 39 39 40 42 42 40 39 37 33 29 29 31 34 37 44 50 52 56 61 63 64 67 72 75 77 77 76 76 73 68 65 65 69 73 72 70 71 68 62 59 54 47 42 40 41 43 43 40 36 31 28 29 29 25 21
34 34 33 31 34 32 23 21 28 38 45 45 38 35 34 28 23 22 22 21 19 16 14 13 16 18 17 16 21 27 29 30 31 31 31 30 28 29 30 33 35 37 38 39 42 44 41 38 37 35 32 29 30 32 35 37 40 44 47 51 54 57 62 66 71 73 75 74 73 71 69 67 65 65 69 74 72 71 71 69 64 61 55 47 41 40 41 42 42 38 32 27 26 26 24 21 20
33 36 37 36 39 40 33 24 25 40 48 43 36 36 36 32 25 23 24 22 18 15 15 14 15 18 17 18 22 27 31 33 34 32 30 28 27 30 33 33 34 35 36 38 42 43 39 36 36 35 32 31 31 33 34 36 39 44 46 47 50 53 57 62 68 71 71 70 70 69 67 66 64 63 67 73 74 74 74 72 66 61 55 46 42 42 43 43 40 34 28 26 26 25 22 20 19
36 40 43 43 43 44 43 32 28 43 48 39 37 37 37 37 30 23 23 24 21 18 17 16 16 17 17 19 23 28 31 33 33 34 33 34 35 36 36 34 34 35 36 38 41 40 36 34 35 34 32 32 33 33 33 36 40 44 46 47 49 52 54 59 64 67 67 67 67 66 64 65 65 64 67 72 75 74 75 74 68 61 54 47 44 44 45 44 38 31 26 26 27 25 22 19 19
39 42 46 51 50 48 52 43 35 43 43 37 38 38 38 38 33 26 22 21 22 21 19 16 16 17 17 20 25 28 30 31 32 35 37 38 38 38 36 33 34 35 35 38 40 39 34 32 34 35 33 33 34 33 33 37 41 44 46 48 50 52 55 59 62 64 63 63 62 61 60 61 63 66 69 72 75 74 73 72 65 59 55 50 46 47 48 45 36 30 28 28 28 25 21 19 19
42 42 45 54 55 55 59 49 38 41 41 38 36 38 41 38 32 27 22 20 20 21 20 17 17 18 18 21 27 30 31 31 32 35 37 37 36 35 33 32 34 35 34 37 39 38 34 34 35 35 34 35 34 33 35 39 42 44 47 49 50 53 55 57 59 60 58 58 59 59 59 59 62 67 69 72 76 75 72 68 61 57 55 51 51 51 50 42 34 31 30 30 28 24 21 20 20
43 42 44 51 53 55 58 49 41 42 44 40 37 40 43 39 34 29 22 21 21 20 19 19 19 19 19 23 30 32 32 33 34 36 36 36 34 34 32 32 34 34 33 35 38 38 36 35 35 35 34 35 34 35 38 40 42 45 47 48 50 53 55 56 57 57 55 56 59 60 60 61 63 67 68 72 76 75 72 66 58 55 53 53 55 52 44 36 32 31 32 30 27 23 21 20 21
41 43 46 49 48 51 54 51 47 46 48 44 40 42 40 37 37 30 22 22 22 22 23 22 23 22 19 25 31 32 33 35 36 37 37 36 36 35 33 33 34 34 33 35 38 39 37 35 35 34 34 34 34 37 40 41 42 46 47 47 50 54 54 54 54 54 54 56 59 60 61 62 64 66 67 70 73 73 69 63 57 55 53 54 54 45 36 33 32 31 31 29 26 23 22 21 22
39 44 48 44 42 48 54 56 51 48 53 48 39 40 38 35 36 29 25 25 21 23 24 23 24 22 20 24 31 33 33 36 37 37 38 38 37 37 35 35 34 33 35 37 38 37 36 35 33 33 34 33 35 39 41 41 43 47 47 48 51 53 52 51 52 54 56 57 58 59 61 62 64 66 69 70 71 69 65 60 57 55 53 52 49 40 35 35 32 30 31 29 25 23 22 22 23
36 44 45 39 41 47 53 61 58 52 55 47 37 41 42 39 35 29 27 27 23 21 22 23 24 24 25 28 32 33 32 35 37 36 37 37 38 40 39 37 34 33 36 39 39 38 36 34 33 33 34 33 36 40 40 40 43 46 46 48 51 51 50 49 51 55 56 57 57 58 60 62 64 67 70 70 69 66 63 60 58 55 52 50 46 40 38 37 33 31 30 28 25 23 23 23 24
32 41 44 48 58 57 52 63 67 60 56 47 39 42 44 41 35 29 26 25 23 20 21 25 26 25 30 32 32 32 30 34 37 37 39 40 40 41 40 38 36 36 38 40 38 36 35 34 33 33 34 35 39 41 39 39 43 45 45 48 51 50 49 51 54 57 56 54 56 58 61 64 65 68 70 70 67 65 63 61 59 54 50 47 44 41 40 37 32 30 30 27 25 24 24 24 25
28 40 48 55 65 62 55 61 62 58 59 55 47 45 45 40 32 28 27 26 22 21 22 27 29 28 30 32 33 33 33 36 38 39 42 42 41 41 38 37 39 39 39 39 37 35 34 34 33 33 34 37 40 41 39 41 43 44 46 47 48 49 52 55 56 56 54 54 55 58 62 64 66 68 68 68 66 65 63 61 58 54 49 47 45 43 40 35 31 30 29 27 25 24 24 25 25
27 42 52 52 54 56 58 60 53 50 59 62 56 53 46 36 28 27 30 28 24 23 24 27 30 31 31 32 34 35 36 39 41 42 44 44 44 43 40 40 42 44 44 41 37 34 35 34 33 33 35 38 40 39 39 41 43 45 46 46 47 50 54 56 55 54 54 55 57 59 61 62 64 66 67 67 66 64 61 59 56 54 51 49 47 45 40 34 30 30 30 28 26 25 24 25 26
27 38 48 50 51 56 65 68 53 43 51 56 57 57 44 29 25 26 30 32 27 25 27 27 29 31 31 33 36 37 40 43 45 47 47 46 46 45 44 44 45 48 49 43 37 35 36 35 33 34 36 39 39 39 40 40 42 45 47 46 48 52 55 55 54 54 55 56 58 59 59 58 60 64 67 68 66 62 59 56 55 55 54 52 49 45 39 32 30 31 30 28 26 25 25 26 27